Historyczne dane pomiarowe

Dodano dane terminowe – wersja testowa.

Dane z okresu 1951-2019

Wersja bazy: 1.34 [2019-03-16, lista zmian], aktualizacja planowana na 2019-04-15

Dane meteo z obszaru Polski uzyskane na podstawie danych udostępnionych przez Instytut Meteorologii i Gospodarki Wodnej – Państwowy Instytut Badawczy.

 

Wybierz Datę:    

       

TemperaturaWilgotnośćWiatrCiśnienieOpadyŚniegCzas trwania zjawisk
 Stacja t tx tn tng RH VA  wxwx mslp ppp RRR   cm mm wxwxwxwxwxwxwx
1956-11-09 -2.1 0.4-- 83.3- 6.0 2.0---- 0.0------------
1956-11-08 -0.7 3.3 -1.9- 85.3- 7.7 3.0---- 0.1------------
1956-11-07 3.0 5.0 2.1- 66.5- 6.0 7.3---- 5.0------------
1956-11-06 4.1 5.5 2.2- 55.5- 4.7 12.0---- 0.0------------
1956-11-05 5.4 8.0 -1.6- 71.0- 5.3 9.7---- 1.0------------
1956-11-04 2.1 5.4 -0.7- 79.8- 5.7 3.3---- 1.0------------
1956-11-03 1.8 5.7 -1.7- 86.0- 5.7 4.0---- 0.9------------
1956-11-02 5.0 6.5 3.9- 58.8- 4.7 4.3---- 9.3------------
1956-11-01 3.8 5.5 -1.8- 96.3- 7.7 3.0---- 13.8------------
1956-10-31 -2.3 0.6 -6.7- 90.5- 3.3 2.3---- 0.0------------
1956-10-30 -2.1 0.2 -3.4- 83.3- 4.3 5.7---- 2.4------------
1956-10-29 0.3 5.7 -0.8- 94.5- 8.0 7.7---- 3.8------------
1956-10-28 6.5 8.3 5.1- 90.0- 8.0 9.3---- 3.8------------
1956-10-27 8.2 16.4 6.4- 82.0- 7.0 11.3---- 11.6------------
1956-10-26 8.5 9.6 6.5- 84.5- 8.0 1.3---- 0.0------------
1956-10-25 11.0 15.2 9.2- 87.8- 7.3 2.0---- 0.2------------
1956-10-24 12.0 14.1 9.0- 90.5- 8.0 4.0---- 0.0------------
1956-10-23 10.5 12.5 9.5- 81.3- 8.0 2.0---- 0.0------------
1956-10-22 12.8 14.9 11.7- 72.5- 6.7 7.0---- 0.0------------
1956-10-21 12.8 14.5 8.2- 84.5- 8.0 2.0---- 0.0------------
1956-10-20 9.0 10.8 5.2- 93.3- 6.7 0.7---- 4.6------------
1956-10-19 11.0 13.0 9.2- 96.3- 7.0 2.3---- 0.1------------
1956-10-18 10.8 12.6 6.6- 92.3- 8.0 3.3---- 1.5------------
1956-10-17 7.4 12.9 1.6- 80.8- 1.7 4.7---- 0.0------------
1956-10-16 7.4 11.9 2.1- 86.8- 4.3 1.0---- 0.0------------
1956-10-15 6.5 10.9 4.1- 84.8- 2.0 4.0---- 0.0------------
1956-10-14 9.7 11.2 9.0- 93.8- 2.0 9.3---- 0.0------------
1956-10-13 10.8 12.5 9.9- 79.8- 7.3 7.7---- 19.1------------
1956-10-12 11.0 13.1 9.4- 80.3- 6.0 4.7---- 0.5------------
1956-10-11 11.0 13.4 6.2- 93.5- 7.3 4.0---- 2.0------------
1956-10-10 6.9 10.4 2.6- 93.5- 6.3 2.7---- 0.8------------
1956-10-09 8.5 11.4 4.3- 92.3- 6.0 7.0---- 0.5------------
1956-10-08 6.1 9.1 5.0- 90.3- 6.7 2.0---- 1.2------------
1956-10-07 9.4 11.2 8.3- 95.5- 7.7 10.7---- 5.5------------
1956-10-06 8.9 11.0 4.5- 82.0- 7.3 1.7---- 1.9------------
1956-10-05 7.6 11.6 5.8- 88.8- 8.0 2.3---- 2.6------------
1956-10-04 9.3 14.5 5.6- 91.8- 8.0 2.3---- 2.3------------
1956-10-03 11.7 16.6 9.2- 89.3- 5.3 3.0---- 1.9------------
1956-10-02 15.2 21.5 9.6- 84.5- 6.0 3.0---- 20.3------------
1956-10-01 12.8 18.3 6.2- 91.8- 5.3 3.0---- 5.0------------
1956-09-30 12.4 19.0 9.5- 91.3- 2.0 2.3---- 0.0------------
1956-09-29 14.2 18.3 12.0- 79.0- 3.0 5.0---- 0.0------------
1956-09-28 15.9 18.6 14.1- 82.0- 8.0 3.0---- 0.8------------
1956-09-27 16.1 20.6 9.3- 77.3- 3.7 3.0---- 0.0------------
1956-09-26 14.4 21.2 6.7- 76.5- 0.3 4.3---- 0.0------------
1956-09-25 9.4 17.0 2.7- 74.5- 0.7 2.3---- 0.0------------
1956-09-24 8.5 14.5 5.0- 69.3- 1.3 3.7---- 0.0------------
1956-09-23 10.4 15.0 6.7- 73.3- 2.3 3.0---- 0.0------------
1956-09-22 12.4 15.9 7.4- 85.3- 3.0 3.0---- 0.0------------
1956-09-21 11.4 17.5 5.1- 80.0- 1.7 1.0---- 0.0------------
1956-09-20 11.2 16.1 6.1- 81.8- 5.3 0.3---- 0.0------------
1956-09-19 9.6 15.6 4.5- 83.3- 2.7 0.7---- 0.0------------
1956-09-18 12.0 14.5 9.6- 76.5- 4.3 4.0---- 0.0------------
1956-09-17 10.5 14.0 6.2- 74.5- 4.7 11.3---- 10.3------------
1956-09-16 11.6 14.8 5.6- 78.0- 6.0 6.0---- 6.6------------
1956-09-15 11.6 15.7 8.2- 80.3- 3.7 4.7---- 0.0------------
1956-09-14 11.8 15.3 8.0- 86.3- 2.7 0.0---- 1.4------------
1956-09-13 11.0 13.5 7.6- 80.0- 3.7 2.0---- 2.9------------
1956-09-12 11.7 16.1 8.7- 81.3- 5.3 5.0---- 0.8------------
1956-09-11 13.3 17.5 11.7- 89.0- 7.0 2.0---- 9.3------------
226.1 ms

 

Źródłem pochodzenia danych jest Instytut Meteorologii i Gospodarki Wodnej – Państwowy Instytut Badawczy. Dane Instytutu Meteorologii i Gospodarki Wodnej – Państwowego Instytutu Badawczego zostały przetworzone.

Dane źródłowe można odnaleźć na stronie https://dane.imgw.pl